Location: DaVinci Observatory
(43.1080°N, 78.6453°W)
Time: 22:13:48
(UTC-04:00)

OTV 5 (USA 277) - Pass Details

Date: 12 October 2017
Orbit: 404 x 417 km, 43.0° (Epoch: 07 September)

Event Time Altitude Azimuth Distance (km) Brightness Sun altitude
Rises 21:14:30 0° 268° (W) 2,353 ? -29.4°
Reaches altitude 10° 21:16:37 10° 269° (W) 1,490 ? -29.8°
Enters shadow 21:17:10 14° 269° (W) 1,269 ? -29.9°
